Location: Newark
(3.0500°N, 36.0167°E)
Time: 22:21:17
(UTC+00:00)

Vanguard 1 - Visible Passes

Search period start: 19 August 2019 00:00
Search period end: 29 August 2019 00:00
Orbit: 655 x 3829 km, 34.2° (Epoch: 17 August)

Date Brightness Start Highest point End Pass type
(mag) Time Alt. Az. Time Alt. Az. Time Alt. Az.
19 Aug 13.7 00:48:35 13° SSW 00:54:58 16° S 01:03:36 10° SE visible
19 Aug 12.7 03:10:42 10° SSW 03:23:57 31° SSE 03:31:58 10° E visible
19 Aug 12.2 17:29:52 10° WNW 17:41:36 66° SW 17:52:35 32° SE visible
19 Aug 13.5 19:55:22 10° WSW 20:05:20 27° SW 20:05:20 27° SW visible
20 Aug 13.6 01:08:11 12° SSW 01:18:21 19° SSE 01:27:41 10° SE visible
20 Aug 12.5 17:51:25 10° WNW 18:03:28 52° SSW 18:12:49 33° SSE visible
20 Aug 13.7 20:19:03 10° WSW 20:25:35 20° SW 20:25:35 20° SW visible
20 Aug 14.0 23:15:08 13° SSE 23:15:08 13° SSE 23:18:58 10° SSE visible
21 Aug 13.4 01:27:50 11° SSW 01:41:20 23° SSE 01:51:11 10° ESE visible
21 Aug 11.6 15:51:39 10° NW 16:00:34 80° NE 16:17:48 10° SE visible
21 Aug 12.9 18:13:22 10° W 18:25:37 41° SSW 18:33:06 32° S visible
21 Aug 13.9 20:43:25 10° SW 20:45:51 13° SW 20:45:51 13° SW visible
21 Aug 13.9 23:34:50 16° SSE 23:34:50 16° SSE 23:43:15 10° SE visible
22 Aug 13.1 01:48:15 10° SSW 02:03:59 29° SSE 02:14:04 10° E visible
22 Aug 11.8 16:12:36 10° WNW 16:21:51 79° SW 16:39:39 10° SE visible
22 Aug 13.2 18:35:47 10° W 18:48:03 32° SSW 18:53:22 29° S visible
22 Aug14.121:41:53SE21:41:53SE21:06:08SWvisible
22 Aug 13.8 23:54:36 18° S 23:56:23 19° SSE 00:07:42 10° SE visible
23 Aug 12.8 02:09:23 10° SW 02:26:18 38° SSE 02:36:23 10° E visible
23 Aug 12.1 16:33:50 10° WNW 16:43:24 60° SSW 17:00:53 11° SE visible
23 Aug 13.4 18:58:45 10° WSW 19:10:50 26° SSW 19:13:38 25° S visible
23 Aug14.322:01:43SE22:01:43SE21:26:24SWvisible
24 Aug 13.6 00:14:27 20° S 00:19:51 22° SSE 00:31:47 10° ESE visible
24 Aug 12.5 02:30:35 10° SW 02:48:20 49° SSE 02:58:15 10° ENE visible
24 Aug 12.5 16:55:24 10° W 17:05:13 46° SSW 17:21:08 13° SE visible
24 Aug 13.6 19:22:22 10° WSW 19:33:54 21° SSW 19:33:54 21° SSW visible
25 Aug 13.4 00:34:22 21° S 00:42:54 28° SSE 00:55:14 10° ESE visible
25 Aug 12.1 02:51:58 10° SW 03:10:05 65° SSE 03:19:43 10° ENE visible
25 Aug 12.8 17:17:23 10° W 17:27:19 35° SSW 17:41:22 14° SSE visible
25 Aug 13.8 19:46:34 10° SW 19:54:07 17° SSW 19:54:07 17° SSW visible
25 Aug 14.0 22:41:37 14° SE 22:41:37 14° SE 22:46:04 10° SE visible
26 Aug 13.2 00:54:21 22° SSW 01:05:36 35° SSE 01:18:04 10° E visible
26 Aug 11.8 03:13:37 10° SW 03:31:34 84° SE 03:40:53 10° NE visible
26 Aug 13.1 17:39:50 10° WSW 17:49:42 27° SSW 18:01:33 15° SSE visible
26 Aug 13.9 20:11:02 10° SW 20:14:17 13° SSW 20:14:17 13° SSW visible
26 Aug 13.8 23:01:41 20° SSE 23:01:41 20° SSE 23:10:50 10° ESE visible
27 Aug 12.9 01:14:25 22° SSW 01:27:57 44° SSE 01:40:22 10° E visible
27 Aug 12.0 15:38:09 10° WNW 15:45:53 52° SSW 16:00:14 10° SE visible
27 Aug 13.4 18:02:53 10° WSW 18:12:26 22° SSW 18:21:40 15° SSE visible
27 Aug 13.6 23:21:48 25° SSE 23:21:48 25° SSE 23:35:04 10° ESE visible
28 Aug 12.6 01:34:33 20° SW 01:50:02 56° SSE 02:02:11 10° ENE visible
28 Aug 12.4 15:59:48 10° W 16:07:40 38° SSW 16:21:23 10° SE visible
28 Aug 13.6 18:26:33 10° SW 18:35:30 17° SSW 18:41:44 15° S visible
28 Aug14.221:29:15ESE21:29:15ESE20:54:28SSWvisible
28 Aug 13.4 23:42:00 31° SSE 23:43:50 31° SSE 23:58:35 10° E visible
